Weather History for Wildwood, NJ

Change the Weather History Date:

Tuesday, September 10, 2013

  Actual Average Record
Temperature  
Mean Temperature 76 °F -  
Max Temperature 84 °F 75 °F 87 °F (2007)
Min Temperature 69 °F 61 °F 55 °F (2003)
Cooling Degree Days 12    
Growing Degree Days 26 (Base 50)    
Moisture  
Dew Point 68 °F    
Average Humidity 76    
Maximum Humidity 83    
Minimum Humidity 62    
Precipitation  
Precipitation 0.00 in - - ()
Sea Level Pressure  
Sea Level Pressure 30.17 in    
Wind  
Wind Speed 10 mph (South)    
Max Wind Speed 16 mph    
Max Gust Speed 21 mph    
Visibility 10 miles    
Events      
Averages and records for this station are not official NWS values.
T = Trace of Precipitation, MM = Missing Value Source: NWS Daily Summary

Daily Weather History Graph

Daily Weather History Graph

Search for Another Location

Airport:

Trip Planner

Search our weather history database for the weather conditions in past years. The results will help you decide how hot, cold, wet, or windy it might be!

Date:

Astronomy

Sep. 10, 2013 Rise Set
Actual Time 6:36 AM EDT 7:15 PM EDT
Civil Twilight 6:09 AM EDT 7:42 PM EDT
Nautical Twilight 5:37 AM EDT 8:14 PM EDT
Astronomical Twilight 5:05 AM EDT 8:46 PM EDT
Moon 11:56 AM EDT (9/10) 10:19 PM EDT (9/10)
Length of Visible Light 13h 32m
Length of Day
12h 38m
Waxing Crescent, 28% of the Moon is Illuminated
Sep 10
Waxing Crescent
Sep 12
First Quarter
Sep 19
Full
Sep 26
Last Quarter
Oct 4
New

Hourly Weather History & Observations

Time (EDT) Temp. Heat Index Dew Point Humidity Pressure Visibility Wind Dir Wind Speed Gust Speed Precip Events Conditions
12:15 AM 69.8 °F - 62.6 °F 78% 30.19 in 10.0 mi SSE 8.1 mph - N/A   Overcast
12:35 AM 71.6 °F - 64.4 °F 78% 30.19 in 10.0 mi South 6.9 mph - N/A   Overcast
12:55 AM 71.6 °F - 64.4 °F 78% 30.19 in 10.0 mi South 9.2 mph - N/A   Overcast
1:15 AM 71.6 °F - 64.4 °F 78% 30.19 in 10.0 mi South 10.4 mph - N/A   Overcast
1:35 AM 71.6 °F - 64.4 °F 78% 30.18 in 10.0 mi South 9.2 mph - N/A   Overcast
1:55 AM 71.6 °F - 64.4 °F 78% 30.18 in 10.0 mi South 9.2 mph - N/A   Overcast
2:15 AM 71.6 °F - 64.4 °F 78% 30.18 in 10.0 mi South 10.4 mph - N/A   Overcast
2:35 AM 71.6 °F - 64.4 °F 78% 30.18 in 10.0 mi South 9.2 mph - N/A   Mostly Cloudy
2:55 AM 69.8 °F - 64.4 °F 83% 30.18 in 10.0 mi South 9.2 mph - N/A   Partly Cloudy
3:15 AM 69.8 °F - 64.4 °F 83% 30.17 in 10.0 mi South 9.2 mph - N/A   Clear
3:35 AM 69.8 °F - 64.4 °F 83% 30.17 in 10.0 mi South 8.1 mph - N/A   Clear
3:55 AM 69.8 °F - 64.4 °F 83% 30.17 in 10.0 mi South 6.9 mph - N/A   Clear
4:15 AM 69.8 °F - 64.4 °F 83% 30.17 in 10.0 mi South 6.9 mph - N/A   Clear
4:35 AM 69.8 °F - 64.4 °F 83% 30.18 in 10.0 mi South 8.1 mph - N/A   Mostly Cloudy
4:55 AM 71.6 °F - 66.2 °F 83% 30.18 in 10.0 mi South 6.9 mph - N/A   Overcast
5:15 AM 71.6 °F - 66.2 °F 83% 30.18 in 10.0 mi South 10.4 mph - N/A   Overcast
5:35 AM 71.6 °F - 66.2 °F 83% 30.18 in 10.0 mi South 9.2 mph - N/A   Overcast
5:55 AM 71.6 °F - 66.2 °F 83% 30.18 in 10.0 mi South 9.2 mph - N/A   Overcast
6:15 AM 71.6 °F - 66.2 °F 83% 30.19 in 10.0 mi South 9.2 mph - N/A   Overcast
6:35 AM 71.6 °F - 66.2 °F 83% 30.20 in 10.0 mi South 9.2 mph - N/A   Overcast
6:55 AM 71.6 °F - 66.2 °F 83% 30.20 in 10.0 mi South 10.4 mph - N/A   Overcast
7:15 AM 71.6 °F - 66.2 °F 83% 30.20 in 10.0 mi South 10.4 mph - N/A   Overcast
7:35 AM 71.6 °F - 66.2 °F 83% 30.20 in 10.0 mi SSW 9.2 mph - N/A   Overcast
7:55 AM 71.6 °F - 66.2 °F 83% 30.20 in 10.0 mi SSW 8.1 mph - N/A   Overcast
8:15 AM 73.4 °F - 66.2 °F 78% 30.20 in 10.0 mi SSW 11.5 mph - N/A   Overcast
8:35 AM 73.4 °F - 66.2 °F 78% 30.20 in 10.0 mi South 11.5 mph - N/A   Overcast
8:55 AM 73.4 °F - 66.2 °F 78% 30.20 in 10.0 mi SSW 12.7 mph 17.3 mph N/A   Overcast
9:15 AM 73.4 °F - 66.2 °F 78% 30.19 in 10.0 mi SSW 15.0 mph 18.4 mph N/A   Overcast
9:35 AM 75.2 °F - 68.0 °F 78% 30.19 in 10.0 mi SSW 11.5 mph 20.7 mph N/A   Partly Cloudy
9:55 AM 77.0 °F - 68.0 °F 74% 30.21 in 10.0 mi SSW 12.7 mph 18.4 mph N/A   Clear
10:15 AM 78.8 °F - 68.0 °F 69% 30.22 in 10.0 mi SW 13.8 mph 19.6 mph N/A   Clear
10:35 AM 80.6 °F 83.2 °F 68.0 °F 65% 30.22 in 10.0 mi SSW 11.5 mph - N/A   Clear
10:55 AM 80.6 °F 83.9 °F 69.8 °F 70% 30.22 in 10.0 mi SSW 13.8 mph - N/A   Clear
11:15 AM 80.6 °F 83.9 °F 69.8 °F 70% 30.21 in 10.0 mi South 11.5 mph - N/A   Clear
11:35 AM 80.6 °F 83.9 °F 69.8 °F 70% 30.21 in 10.0 mi SW 10.4 mph - N/A   Partly Cloudy
11:55 AM 82.4 °F 86.3 °F 69.8 °F 66% 30.20 in 10.0 mi SSW 11.5 mph 17.3 mph N/A   Mostly Cloudy
12:15 PM 82.4 °F 86.3 °F 69.8 °F 66% 30.20 in 10.0 mi South 11.5 mph - N/A   Scattered Clouds
12:35 PM 82.4 °F 86.3 °F 69.8 °F 66% 30.19 in 10.0 mi South 9.2 mph - N/A   Clear
12:55 PM 82.4 °F 86.3 °F 69.8 °F 66% 30.19 in 10.0 mi South 8.1 mph - N/A   Clear
1:15 PM 82.4 °F 86.3 °F 69.8 °F 66% 30.18 in 10.0 mi South 11.5 mph - N/A   Clear
1:35 PM 82.4 °F 86.3 °F 69.8 °F 66% 30.18 in 10.0 mi South 10.4 mph - N/A   Clear
1:55 PM 82.4 °F 86.3 °F 69.8 °F 66% 30.16 in 10.0 mi South 12.7 mph - N/A   Clear
2:15 PM 82.4 °F 86.3 °F 69.8 °F 66% 30.16 in 10.0 mi South 13.8 mph - N/A   Clear
2:35 PM 84.2 °F 88.4 °F 69.8 °F 62% 30.15 in 10.0 mi South 15.0 mph - N/A   Clear
2:55 PM 82.4 °F 86.3 °F 69.8 °F 66% 30.14 in 10.0 mi South 16.1 mph - N/A   Clear
3:15 PM 82.4 °F 86.3 °F 69.8 °F 66% 30.15 in 10.0 mi South 11.5 mph - N/A   Clear
3:35 PM 82.4 °F 86.3 °F 69.8 °F 66% 30.14 in 10.0 mi South 15.0 mph - N/A   Clear
3:55 PM 82.4 °F 86.3 °F 69.8 °F 66% 30.14 in 10.0 mi South 15.0 mph 18.4 mph N/A   Clear
4:15 PM 82.4 °F 86.3 °F 69.8 °F 66% 30.13 in 10.0 mi South 12.7 mph - N/A   Clear
4:35 PM 82.4 °F 86.3 °F 69.8 °F 66% 30.12 in 10.0 mi South 12.7 mph - N/A   Clear
4:55 PM 82.4 °F 86.3 °F 69.8 °F 66% 30.13 in 10.0 mi South 11.5 mph - N/A   Clear
5:15 PM 82.4 °F 86.3 °F 69.8 °F 66% 30.12 in 10.0 mi South 9.2 mph - N/A   Clear
5:35 PM 80.6 °F 83.9 °F 69.8 °F 70% 30.12 in 10.0 mi South 10.4 mph - N/A   Clear
5:55 PM - - - N/A% 30.12 in - South 8.1 mph - N/A   Unknown
6:15 PM 78.8 °F - 69.8 °F 74% 30.12 in 10.0 mi South 11.5 mph - N/A   Clear
6:35 PM 78.8 °F - 69.8 °F 74% 30.13 in 10.0 mi South 8.1 mph - N/A   Clear
6:55 PM 77.0 °F - 69.8 °F 78% 30.13 in 10.0 mi SSW 9.2 mph - N/A   Clear
7:15 PM 77.0 °F - 69.8 °F 78% 30.14 in 10.0 mi SSW 10.4 mph - N/A   Clear
7:35 PM 75.2 °F - 69.8 °F 83% 30.13 in 10.0 mi South 8.1 mph - N/A   Clear
7:55 PM 75.2 °F - 69.8 °F 83% 30.14 in 10.0 mi South 8.1 mph - N/A   Clear
8:15 PM 75.2 °F - 69.8 °F 83% 30.15 in 10.0 mi South 8.1 mph - N/A   Clear
8:35 PM 75.2 °F - 69.8 °F 83% 30.15 in 10.0 mi South 9.2 mph - N/A   Clear
8:55 PM 75.2 °F - 69.8 °F 83% 30.16 in 10.0 mi South 8.1 mph - N/A   Clear
9:15 PM 75.2 °F - 69.8 °F 83% 30.16 in 10.0 mi South 10.4 mph - N/A   Clear
9:35 PM 75.2 °F - 69.8 °F 83% 30.16 in 10.0 mi South 9.2 mph - N/A   Clear
9:55 PM 75.2 °F - 68.0 °F 78% 30.17 in 10.0 mi South 11.5 mph - N/A   Clear
10:15 PM 75.2 °F - 68.0 °F 78% 30.17 in 10.0 mi SSW 9.2 mph - N/A   Clear
10:35 PM 75.2 °F - 66.2 °F 73% 30.17 in 10.0 mi SSW 10.4 mph - N/A   Clear
10:55 PM 75.2 °F - 66.2 °F 73% 30.17 in 10.0 mi SSW 8.1 mph - N/A   Clear
11:15 PM 75.2 °F - 66.2 °F 73% 30.17 in 10.0 mi SSW 8.1 mph - N/A   Clear
11:35 PM 73.4 °F - 66.2 °F 78% 30.17 in 10.0 mi SSW 8.1 mph - N/A   Clear
11:55 PM 73.4 °F - 66.2 °F 78% 30.17 in 10.0 mi SSW 6.9 mph - N/A   Clear